{"data":{"norad_id":63751,"intl_designator":"2025-089A","name":"STARLINK-11677 [DTC]","alt_names":[],"object_type":"PAYLOAD","status":"ACTIVE","operator":null,"country":"US","launch_date":"2025-04-29","launch_site_code":"AFETR","launch_vehicle":null,"mission":null,"orbit_class":"UNKNOWN","rcs_meters":null,"size_class":null,"mass_kg":null,"dimensions":null,"purposes":["comms"],"wikipedia_slug":null,"has_3d_model":false,"image_url":null,"decayed_at":null,"tle_current":{"epoch":"2026-05-25T03:03:21.374208Z","epoch_age_seconds":67075,"freshness":"FRESH","line1":"1 63751U 25089A   26145.12733072  .00233006  00000+0  17604-2 0  9992","line2":"2 63751  43.0007 191.8193 0001612 237.0736 122.9977 15.70954705 62152","mean_motion":15.70954705,"eccentricity":0.0001612,"inclination_deg":43.0007,"raan_deg":191.8193,"arg_perigee_deg":237.0736,"mean_anomaly_deg":122.9977,"bstar":0.0017604,"rev_number":6215,"period_min":91.66400504208,"perigee_km":355.08166331744,"apogee_km":357.25280300221,"semimajor_km":6734.3042331598,"source":"CELESTRAK","updated_at":"2026-05-25T13:38:20.102743Z"}}}